KUIPER-00214

导读 | 豆包AI

KUIPER-00214是法国(FR)于2026年2月12日发射的卫星,隶属于柯伊伯(Kuiper)卫星项目。从命名推测,该卫星大概率属于星座组网卫星,可能承担互联网通信、遥感观测或空间技术试验等任务,是法国近年航天部署中重要的空间基础设施组成部分,发射后将进入预定轨道开展相关工作,助力法国航天领域技术验证与空间服务能力拓展。

Basic Information
目录编号:
67778
目录名称:
KUIPER-00214
国际标识:
2026-030Q
轨道中心:
EARTH
卫星名称:
KUIPER-00214
卫星全名:
KUIPER-00214
卫星状态:
在轨 (已飞行77 天)
发射日期:
2026-02-12 UTC
国别 :
美国 (US)
星等 :
--
Orbit Information
数据来源 国际轨道数据
星历时间: 2026-04-30T12:00:01+0800
5小时前
查看轨道信息
半长轴: 7005.698km
偏心率: 0.0002309
轨道倾角: 51.900°
近地点辐角 84.245°
升交点赤经 335.514°
平近点角 6.877°
近地点: 625.943km
远地点: 629.179km
周期: 97.261分钟
每日圈数: 14.80559
Detailed Information
使用方式:
暂无
2D Orbit Map
3D Orbit Map
Orbit Altitude Analysis Chart
Orbit Inclination Analysis Chart
Orbit Comprehensive Analysis Chart
View Comprehensive Chart